Theta_e
326 326 325 325 324 322 320 318 319 320 319 319 316 311 310 311 308 304 305 305 305 304 308 313 313 311 311 310 308 306 305 305 306 306 307 308 308 307 308 310 311 312 313 314 314 314 315 314 313 313 315 315 314 314 314 315 315 315 315 316 315 316 316 316 316 314 313 312 311 309 308 308 308 307 308 309 309 308 307 307 308 307 306 307 307
326 326 325 325 325 324 323 321 320 320 319 319 317 312 312 313 310 306 305 306 307 308 311 314 314 312 312 311 310 308 307 307 308 310 310 309 309 310 312 313 312 313 313 314 315 314 314 314 312 312 313 313 314 314 314 314 314 315 315 315 315 315 315 315 315 315 314 313 311 309 309 310 309 308 309 310 310 309 307 307 307 307 307 308 307
326 326 326 326 326 325 323 322 321 320 319 319 317 313 314 316 315 311 308 308 311 313 314 314 314 314 313 313 312 310 310 310 311 312 310 308 310 313 314 314 312 312 313 313 313 313 314 314 312 311 311 312 314 314 313 314 314 315 315 315 315 315 315 315 315 315 315 314 312 311 310 311 311 309 308 309 309 309 309 308 308 308 307 308 308
327 327 327 327 327 326 324 322 321 320 320 319 316 314 316 318 317 313 311 310 312 314 315 314 313 315 315 315 314 312 312 313 314 314 312 311 312 313 314 314 313 313 314 313 313 313 315 315 315 314 314 314 315 315 314 314 314 315 315 315 315 315 315 315 315 315 315 314 314 312 311 312 312 310 309 309 309 309 310 309 309 308 308 308 309
327 327 328 327 326 326 325 323 322 321 320 320 317 314 315 318 317 314 312 312 312 313 315 314 314 314 315 315 315 314 314 314 314 315 315 315 314 314 315 315 315 316 316 315 315 315 316 317 317 317 316 317 317 317 316 316 315 315 315 315 315 315 315 315 315 315 315 315 314 313 313 313 312 311 311 310 310 311 311 310 310 310 310 310 310
327 327 327 327 326 325 325 324 324 322 321 321 319 317 316 318 319 317 315 315 314 313 313 314 314 314 314 314 314 315 314 314 314 316 316 317 317 316 317 317 317 318 317 317 317 317 318 318 318 318 318 318 317 317 317 316 316 316 316 315 315 314 314 315 315 315 315 315 315 314 313 313 313 312 312 310 310 310 311 310 311 311 311 311 310
326 326 326 327 327 326 326 325 324 324 323 322 321 320 320 320 319 318 318 319 318 315 313 314 315 314 314 313 313 314 314 314 315 315 315 316 317 317 318 318 318 319 319 318 318 318 318 318 318 318 318 318 318 317 317 317 317 316 316 316 315 315 314 314 315 314 315 315 314 314 314 313 313 313 312 311 310 311 311 311 311 311 311 310 310
326 326 326 327 326 326 326 325 325 324 324 323 323 323 322 321 320 319 319 320 320 318 316 316 316 315 315 314 314 314 314 314 315 315 315 317 318 319 319 320 320 320 320 319 319 320 319 318 318 318 318 318 318 317 317 317 317 317 317 316 315 315 314 314 314 314 314 315 314 314 314 313 313 313 312 312 311 311 311 311 310 311 310 310 309
325 325 326 326 325 325 325 325 325 325 324 324 324 324 323 321 321 321 321 321 321 320 319 318 317 315 315 315 315 315 314 314 315 316 317 318 319 320 321 321 321 321 321 321 321 320 319 317 316 316 317 317 317 316 316 316 316 317 317 316 316 316 315 314 314 314 314 314 314 313 313 313 312 312 312 312 312 311 310 310 310 310 310 309 309
325 325 325 325 325 324 324 325 325 325 325 325 325 324 323 321 320 320 321 322 321 321 320 320 319 317 316 317 316 316 316 316 316 316 317 319 319 320 319 319 319 319 319 320 320 319 318 317 316 316 316 316 316 315 315 315 315 316 316 316 316 316 315 314 314 314 314 314 313 313 313 313 312 312 312 312 311 310 310 309 309 309 309 309 308
324 324 325 325 325 325 325 325 325 325 324 324 324 324 323 322 321 320 321 322 322 322 321 321 321 320 318 318 318 318 318 317 315 316 317 318 318 318 317 316 316 317 317 318 318 316 316 316 316 315 315 314 315 315 314 314 314 314 314 316 316 316 316 315 314 314 314 313 313 313 313 312 312 311 311 311 310 310 309 308 308 308 308 308 308
323 323 323 323 323 324 324 324 324 325 324 324 324 324 324 324 323 322 323 322 322 322 321 321 321 321 320 319 319 320 319 316 314 314 314 314 314 315 315 314 315 316 316 316 316 314 315 316 316 315 315 314 312 311 309 307 307 307 308 311 313 315 316 316 315 313 312 313 313 312 312 311 311 310 310 310 309 308 308 307 307 307 307 307 307
319 320 321 322 322 323 323 323 323 323 323 323 323 323 323 323 323 323 323 323 322 322 322 321 321 321 322 320 321 321 320 317 315 314 313 313 313 313 314 315 315 315 314 315 314 314 316 316 315 315 314 310 308 307 305 303 302 302 302 304 307 310 313 316 316 313 311 311 311 311 311 311 310 309 308 308 307 306 306 306 306 306 306 305 305
315 315 316 318 319 320 321 321 322 322 322 322 322 322 322 322 322 322 322 323 322 322 322 321 321 321 321 321 321 322 321 319 316 314 314 314 314 314 314 314 314 313 312 313 314 315 316 316 315 315 312 304 302 305 305 302 302 302 302 303 305 308 311 314 316 315 312 309 308 308 309 309 308 307 306 306 306 306 306 305 305 305 304 303 302
311 312 312 313 314 315 316 317 319 320 321 321 321 321 321 321 321 322 322 322 322 322 321 321 320 319 320 319 319 320 320 319 317 315 315 315 315 315 314 313 313 312 312 313 314 316 316 313 312 313 310 302 301 303 303 302 302 302 303 304 305 307 310 312 313 314 312 309 307 306 307 306 306 306 306 306 306 305 305 304 304 303 302 302 302
310 310 310 310 311 311 312 313 314 315 317 319 320 320 321 321 321 322 322 322 322 322 321 320 319 320 320 319 318 317 317 317 316 315 316 316 315 315 313 313 314 313 313 315 315 315 313 310 310 308 304 301 302 302 301 302 302 303 305 307 306 306 309 311 311 310 309 308 307 306 306 306 306 306 306 306 305 304 303 303 302 302 301 301 301
308 308 309 309 309 309 310 311 311 312 313 315 317 318 319 319 320 320 321 321 322 322 321 320 320 320 321 320 319 318 317 317 316 316 315 315 315 315 314 314 314 314 314 314 313 312 309 309 309 306 301 301 302 302 301 302 306 309 309 307 306 306 307 309 308 308 307 307 306 306 306 306 306 306 305 304 304 303 302 301 300 299 299 300 300
306 305 306 307 307 308 309 309 310 311 311 312 313 315 316 317 317 318 318 319 321 321 321 320 320 320 320 320 320 319 318 318 318 317 317 315 315 314 314 315 315 315 314 313 311 311 308 305 305 304 302 302 302 302 301 303 309 311 309 307 307 306 306 306 306 307 306 306 306 306 306 305 305 304 303 302 301 300 299 299 298 297 298 299 300
303 303 304 304 305 306 307 308 308 309 310 311 311 312 313 314 315 317 317 318 318 319 320 320 320 321 320 319 319 319 319 319 318 318 317 316 315 315 315 316 315 314 314 312 309 308 305 303 303 303 302 302 302 302 301 303 308 311 309 308 309 308 306 305 304 305 305 304 304 304 303 303 302 301 301 300 300 300 299 298 298 297 298 299 300
300 301 301 302 303 304 305 306 307 308 308 309 309 310 311 312 313 315 316 316 317 318 319 319 320 320 320 319 318 318 319 319 318 317 316 315 315 315 315 315 314 312 312 310 306 304 304 304 303 302 302 302 301 302 301 302 306 308 308 308 309 308 307 306 303 303 304 303 303 302 302 301 301 301 301 300 300 299 299 298 298 298 298 298 298
299 298 298 299 300 301 302 303 304 305 306 307 307 308 308 309 311 313 314 315 315 316 318 319 319 320 319 319 319 317 317 317 317 317 316 316 315 315 315 314 313 312 310 308 305 305 304 304 303 302 302 302 301 301 300 300 302 303 304 305 306 306 306 305 303 303 302 302 302 302 301 301 301 301 301 300 300 299 299 298 298 298 298 298 297
297 297 297 298 298 298 298 299 299 300 302 303 304 305 307 308 309 310 312 314 315 316 317 317 318 318 318 318 318 316 316 316 316 316 315 315 315 314 313 312 312 311 309 308 307 307 305 303 302 302 301 301 300 300 300 300 300 301 301 302 303 303 303 303 303 302 301 301 301 301 301 300 300 300 300 300 299 299 299 298 298 298 297 297 296
296 296 297 297 297 296 296 296 297 297 298 299 300 301 304 307 308 310 311 313 313 314 315 316 317 317 317 318 316 316 315 316 316 315 314 314 315 313 310 310 311 310 309 309 309 308 305 302 302 301 301 301 301 300 301 301 301 301 301 301 301 301 301 301 301 300 300 300 300 300 300 300 300 300 299 299 299 298 298 297 297 296 296 296 296
298 298 298 297 297 297 297 297 298 299 300 300 301 301 303 305 307 309 310 312 312 313 314 316 316 315 316 316 316 315 315 315 315 314 313 314 314 311 309 310 311 310 309 309 308 308 305 302 302 302 301 301 301 301 301 301 301 301 301 300 300 300 300 300 300 300 300 300 300 300 300 299 299 299 298 298 297 296 296 296 296 296 296 296 296
299 299 299 299 299 298 298 298 299 300 300 301 301 302 302 303 305 307 309 310 311 312 313 314 314 315 315 316 316 316 315 315 314 314 313 313 312 310 310 311 311 309 308 309 308 307 304 302 302 302 302 302 302 302 301 301 300 300 300 299 299 299 299 299 300 300 299 299 299 299 298 298 298 298 297 297 296 296 296 296 296 296 295 295 295
300 299 300 299 299 299 299 299 299 300 300 301 301 301 301 302 304 306 307 309 310 311 312 312 313 314 315 315 315 315 315 313 313 314 313 312 311 310 311 311 311 309 308 308 307 305 303 303 303 302 302 302 301 301 301 300 299 299 299 298 299 299 299 299 299 298 298 298 298 298 298 297 297 297 297 297 296 296 296 295 295 295 294 294 294
299 299 299 299 299 299 299 299 299 299 300 300 300 301 301 302 303 303 305 306 308 309 310 311 312 312 313 314 315 315 314 312 313 313 312 310 310 310 310 311 310 309 307 306 305 304 303 303 302 302 302 301 301 300 300 299 299 299 299 299 298 298 298 297 296 296 296 297 297 297 297 296 296 296 296 296 296 296 295 294 294 294 293 293 293
299 299 299 299 299 299 299 299 299 299 299 299 300 300 301 301 302 303 302 304 306 308 309 310 310 311 311 312 313 313 312 312 313 312 312 311 310 311 311 310 310 308 305 303 303 303 303 302 301 301 301 300 300 299 299 299 299 299 298 298 298 297 297 296 295 296 296 297 296 296 295 295 296 296 296 295 295 295 294 294 293 293 293 293 293
298 298 298 298 298 298 298 298 299 299 299 299 299 300 300 301 301 302 301 302 305 307 308 309 310 310 309 309 310 310 311 311 312 312 311 312 312 311 311 310 309 306 303 303 303 303 302 301 300 301 300 300 299 299 299 299 298 298 298 298 297 297 297 295 295 296 296 295 294 294 295 295 295 295 295 295 294 294 294 293 293 293 293 292 293
297 298 298 298 298 298 298 298 298 298 298 298 299 300 300 300 300 300 301 302 304 305 307 308 309 310 309 309 309 310 309 310 310 310 311 311 312 311 311 310 307 305 304 304 303 302 300 300 300 300 300 299 299 300 300 299 298 298 297 297 296 296 295 294 295 295 294 293 294 294 295 295 294 294 294 294 293 293 293 292 292 292 292 292 292
297 297 297 297 297 297 297 297 297 297 298 298 298 298 299 300 300 300 300 301 302 304 305 307 308 309 309 308 308 309 309 309 310 310 310 311 310 310 309 308 306 304 303 303 302 301 301 301 300 300 299 299 299 299 299 298 297 297 297 296 295 295 294 294 294 293 292 293 294 294 294 294 294 294 293 293 292 292 292 292 292 292 292 292 292
296 296 297 297 297 297 297 297 297 297 297 297 297 297 298 299 300 300 300 300 301 301 302 303 305 306 306 306 306 306 307 307 308 309 310 309 308 307 307 307 305 304 302 301 300 301 301 300 300 299 299 299 299 299 298 297 297 297 296 296 295 294 294 294 293 292 292 293 294 294 294 294 293 293 293 292 292 292 292 292 292 292 292 292 292
296 296 296 297 297 297 296 296 296 296 296 296 297 297 297 298 299 300 301 301 301 301 301 300 300 300 301 303 304 304 304 305 306 307 308 307 307 307 308 307 304 302 301 301 300 301 300 299 299 299 299 299 299 298 297 297 296 296 296 295 295 295 294 293 293 293 293 293 293 294 294 293 293 293 292 292 292 292 292 292 292 291 291 291 291
296 296 296 296 296 296 296 296 295 295 295 296 296 296 297 297 298 299 300 301 301 301 301 300 298 299 300 302 303 304 304 304 305 305 306 307 307 307 306 304 302 301 301 301 300 300 299 299 299 300 299 299 298 297 297 297 296 295 295 295 295 295 294 293 293 293 293 293 293 294 293 293 293 292 292 292 292 292 291 291 291 291 291 291 291
296 295 295 296 296 296 296 295 295 295 295 295 295 296 296 296 297 298 299 300 301 302 302 300 299 299 301 302 303 303 304 303 303 304 304 306 306 304 303 302 301 301 301 300 300 299 299 299 300 300 299 298 297 297 297 296 295 295 295 295 294 294 292 292 293 293 292 292 293 293 293 293 293 292 292 292 291 291 291 291 291 291 291 291 291
296 296 295 295 295 295 295 295 294 294 294 294 294 295 295 296 297 298 299 300 301 301 302 301 300 299 300 302 302 303 303 302 302 302 303 303 303 303 301 301 300 300 301 300 299 299 299 300 300 299 299 298 297 296 296 296 295 295 295 294 294 293 292 292 292 292 291 292 293 293 293 293 292 292 292 292 291 291 291 291 291 291 290 290 290
296 296 296 295 295 295 295 295 294 294 294 294 294 294 295 295 296 297 298 300 300 301 302 302 301 300 300 301 301 302 303 302 302 302 302 302 302 302 301 301 300 300 300 300 299 300 300 300 299 299 298 297 297 296 296 295 295 295 295 294 293 292 291 291 291 291 292 293 293 293 293 292 292 292 292 291 291 291 291 291 290 290 290 290 290
296 296 296 295 295 296 296 295 294 294 294 293 293 294 295 295 295 296 298 299 300 301 301 302 301 300 300 300 300 301 302 302 302 302 301 302 301 301 301 301 300 300 300 300 299 300 300 299 299 298 297 297 296 296 296 295 295 295 294 293 292 291 291 292 292 292 292 293 293 293 293 292 292 292 292 291 291 291 291 290 290 290 290 290 290
296 296 296 295 295 295 295 295 294 294 294 293 293 294 294 294 295 296 298 299 300 300 301 301 301 301 300 300 300 300 301 302 302 301 301 301 301 300 300 300 299 300 300 299 299 299 299 298 298 297 297 297 297 296 295 295 295 294 293 292 291 291 291 292 293 293 293 292 292 292 292 292 292 292 291 291 291 290 290 290 289 290 290 290 290
296 296 296 295 295 295 295 295 294 294 293 293 294 294 295 295 295 297 298 299 299 300 300 300 301 301 300 300 301 300 301 301 301 301 301 301 300 300 299 299 298 298 299 299 299 298 298 297 297 297 297 296 296 295 295 294 294 293 292 292 291 291 292 292 293 293 292 291 291 291 291 291 291 291 291 291 290 290 290 290 290 290 290 290 290
296 296 295 295 295 295 294 294 294 294 294 294 294 294 295 295 296 297 298 299 299 299 300 300 300 300 300 300 300 300 300 300 301 301 300 300 299 298 298 298 298 298 298 298 298 297 297 297 296 296 296 295 295 294 294 293 293 292 292 291 291 291 291 292 293 292 291 290 290 290 290 290 290 291 291 290 290 290 290 290 290 290 290 290 290
296 296 295 295 295 295 295 294 294 294 294 294 294 295 295 295 297 298 298 299 299 299 299 300 300 299 299 299 299 299 299 300 300 300 299 298 298 297 298 298 298 297 297 297 297 296 296 296 295 295 294 294 294 294 293 292 292 292 291 290 290 290 291 292 292 291 290 289 289 289 289 290 291 291 290 290 290 290 290 290 290 290 290 290 291
296 295 295 295 295 295 295 295 295 295 295 295 295 295 295 296 297 298 298 299 299 299 299 299 299 298 298 299 299 299 299 299 298 297 297 296 297 297 297 297 297 296 296 296 296 296 295 295 294 294 294 293 293 293 292 291 291 291 290 290 290 290 290 290 290 289 289 289 289 289 289 290 290 290 290 290 290 290 290 290 290 291 291 290 291
296 296 295 295 295 295 295 294 295 295 295 295 295 295 296 296 297 298 298 298 299 299 298 298 298 298 298 298 299 299 298 297 296 296 296 296 296 296 296 296 296 295 296 296 295 295 294 294 294 293 293 293 292 292 291 291 290 290 289 289 289 289 289 289 289 289 289 289 289 289 289 289 290 290 290 290 290 290 290 290 291 291 291 290 290
296 297 296 295 296 295 295 294 295 295 295 295 294 295 296 296 297 298 298 298 298 298 298 297 298 298 297 297 297 297 296 295 295 295 295 295 295 295 295 295 295 295 295 295 294 294 293 293 293 292 292 292 292 292 291 291 290 289 288 288 288 288 288 288 288 289 289 289 289 289 289 289 290 290 290 290 290 290 290 290 291 291 291 290 290
296 296 296 295 295 295 295 295 295 295 295 295 295 295 295 296 297 297 297 297 297 297 296 296 296 296 296 295 295 296 295 295 295 295 295 294 294 294 294 294 294 295 294 294 293 293 293 293 292 292 291 291 291 291 290 289 288 288 287 287 287 287 287 287 288 288 288 289 288 288 288 289 289 290 290 290 290 290 291 291 291 291 290 290 290
296 296 296 295 294 294 294 294 295 295 295 295 295 296 296 296 297 297 297 297 297 296 295 295 294 294 295 295 295 295 294 294 294 294 294 294 294 294 294 294 294 294 293 292 292 292 292 292 292 292 291 291 291 290 289 288 288 287 287 287 287 287 287 287 287 287 288 288 288 288 288 289 289 290 290 290 290 291 291 291 291 290 290 290 290
296 295 295 295 295 294 294 294 294 295 295 295 295 296 296 296 296 296 296 296 296 296 295 294 294 294 294 294 294 294 294 294 294 294 294 294 294 294 293 293 292 291 291 291 291 292 292 291 291 291 291 290 290 288 287 287 287 288 288 288 288 287 287 287 287 287 287 287 287 287 288 288 288 289 290 290 290 291 291 290 290 290 290 291 291
296 295 295 295 295 295 295 295 294 294 294 295 295 295 295 295 295 295 295 296 296 296 295 295 294 294 294 293 293 293 293 294 294 294 294 294 293 292 292 291 290 289 289 290 290 291 291 291 291 291 291 289 288 287 287 287 287 288 289 289 289 288 287 287 287 287 287 287 287 287 287 288 288 288 290 290 290 290 290 290 290 290 291 291 291
296 295 295 294 294 295 295 295 294 293 293 293 294 294 294 294 294 294 294 294 295 295 295 294 294 293 293 293 293 293 293 293 294 294 293 293 293 292 292 291 290 289 289 289 290 291 291 291 291 291 290 289 288 287 287 287 288 289 289 290 289 289 288 288 289 288 288 288 288 288 288 288 288 288 289 290 290 290 290 290 290 290 291 291 291
296 296 295 294 294 294 295 294 294 293 293 292 292 292 293 293 292 292 293 293 293 293 294 293 293 293 293 293 293 293 293 293 294 293 293 293 293 292 292 291 290 289 289 289 290 290 291 291 291 290 289 288 287 287 287 288 289 290 290 290 290 290 291 291 291 291 291 290 290 289 289 289 288 288 288 289 290 290 290 290 290 291 291 292 291
Wind_Speed
22 21 20 19 19 19 21 23 21 18 15 12 12 12 10 8 9 10 13 14 13 13 12 10 8 8 8 8 9 10 11 12 12 13 13 13 13 13 13 11 11 12 12 12 11 10 9 8 9 10 8 6 6 5 5 5 5 5 4 3 3 3 3 2 4 3 0 2 1 1 4 4 1 1 4 6 11 11 7 10 15 13 11 14 17
20 19 18 18 19 18 20 22 22 21 18 14 14 14 10 8 9 11 12 13 12 12 12 10 9 9 9 8 8 9 10 12 13 12 13 15 16 15 13 11 11 12 12 10 9 9 8 7 7 7 7 7 6 3 3 4 2 2 3 2 1 1 1 1 2 2 1 2 1 3 3 5 1 5 6 7 10 10 6 8 11 8 7 11 14
16 16 16 17 17 17 18 21 21 20 17 14 16 15 10 9 11 12 11 11 11 10 11 11 11 10 9 9 9 9 10 11 12 11 13 16 16 15 12 11 12 13 11 9 8 8 8 7 6 6 7 8 6 3 4 4 2 1 2 1 1 2 1 1 2 1 2 2 2 4 4 5 5 5 6 8 13 13 7 6 7 7 8 10 12
12 12 13 13 12 13 14 17 17 15 13 15 19 15 9 9 12 13 11 11 11 10 10 11 11 11 10 10 10 10 10 11 11 11 13 14 14 14 12 12 12 11 9 8 8 7 7 6 6 5 6 7 5 3 3 4 3 2 3 2 2 2 1 1 2 2 2 3 3 3 4 5 7 5 5 9 14 15 11 8 8 8 10 13 13
12 11 11 11 11 12 12 13 13 12 12 15 19 18 12 10 12 13 12 11 11 11 11 11 11 11 11 11 11 10 11 11 11 11 12 12 12 12 11 11 11 10 9 9 8 7 7 6 5 5 5 5 4 3 3 4 3 2 4 4 3 4 3 2 2 3 4 4 5 6 6 6 7 7 7 10 12 13 12 10 9 11 13 15 15
13 11 10 11 11 11 12 12 12 12 12 13 16 18 16 13 12 13 12 11 12 12 12 12 11 12 12 11 12 11 11 12 12 12 12 12 12 12 11 11 10 9 8 8 7 7 6 6 6 5 5 5 5 5 5 5 5 4 5 5 5 5 4 4 4 5 6 6 6 7 8 8 7 7 9 10 11 12 13 12 10 12 15 16 16
14 12 11 11 10 10 10 10 10 10 10 11 13 15 15 13 13 13 12 11 12 13 13 13 13 13 12 12 13 13 13 13 13 13 13 13 13 12 12 11 10 9 8 7 6 6 6 6 6 6 6 6 6 7 7 7 8 8 7 8 7 6 5 6 6 7 8 8 7 7 8 9 9 9 10 10 11 12 12 12 12 15 17 15 16
12 11 10 10 10 10 9 9 9 9 10 12 13 12 12 12 13 13 13 13 14 14 14 14 14 14 14 14 14 14 14 14 14 14 14 13 14 13 12 11 9 8 8 7 7 7 7 8 8 7 7 8 9 9 9 9 10 9 9 9 8 8 8 7 7 8 8 9 10 9 9 10 10 10 10 10 11 11 12 14 16 18 18 17 17
11 10 9 8 8 9 8 8 9 10 11 12 12 12 12 13 13 13 13 13 15 15 14 15 15 15 15 15 15 16 16 15 15 16 15 15 15 14 13 13 12 11 9 8 7 8 8 10 10 9 10 11 12 12 12 12 12 11 10 10 9 10 11 10 10 9 9 10 11 10 10 11 11 10 10 11 12 13 14 15 17 18 18 20 19
9 8 8 7 6 6 7 8 9 10 10 11 10 11 12 14 15 14 13 13 13 15 15 15 16 17 16 17 17 17 17 18 19 19 18 17 15 15 16 18 17 16 14 12 9 8 7 7 9 11 12 11 11 13 14 14 14 14 14 14 13 12 12 13 12 11 11 12 12 11 11 11 11 11 11 12 13 14 14 15 17 19 20 21 20
8 7 6 5 5 4 5 6 7 8 9 9 9 10 11 13 15 16 15 14 14 14 16 17 17 18 18 18 19 19 19 21 22 23 22 20 18 16 17 18 17 16 16 14 10 11 11 10 11 13 13 12 12 13 14 15 15 15 15 16 16 15 16 15 12 10 11 12 12 12 11 12 13 12 11 12 12 13 14 16 18 19 20 22 23
7 7 6 4 4 3 3 4 4 5 6 7 8 9 10 11 15 16 16 17 17 17 17 18 19 18 19 20 20 21 23 24 24 24 24 24 22 19 19 19 19 18 18 17 18 21 18 13 11 11 11 13 14 14 14 14 15 15 15 16 17 17 17 16 14 14 13 10 9 9 10 11 11 10 10 12 14 18 20 21 18 17 19 21 22
7 7 6 5 3 2 2 2 2 2 4 6 7 8 9 10 12 14 15 16 18 19 20 20 19 19 20 21 21 23 27 27 25 24 25 25 23 21 21 21 22 21 20 20 21 20 15 12 11 10 12 14 13 12 12 10 9 10 12 13 15 15 15 15 15 17 17 14 10 7 9 12 10 9 13 17 19 22 23 22 19 19 21 23 25
8 8 7 6 5 3 2 0 1 2 3 5 6 6 7 9 10 13 14 15 16 20 22 22 20 20 21 22 23 25 27 28 27 27 29 27 24 25 25 22 22 25 24 22 19 16 15 16 12 10 12 12 10 10 10 8 7 8 10 11 12 13 14 15 16 17 19 19 16 13 13 16 15 15 20 22 23 24 25 24 24 26 28 30 31
8 8 8 7 6 5 3 2 1 2 4 5 6 6 7 9 10 11 12 14 16 19 21 22 23 23 23 24 26 27 27 28 28 29 30 29 28 30 29 23 22 25 24 21 19 17 17 16 13 11 12 10 8 9 9 8 8 8 9 10 11 12 13 14 14 15 17 18 18 17 17 18 18 19 22 23 24 25 25 26 28 31 31 30 26
7 7 7 7 6 5 4 3 2 2 4 5 6 7 8 9 10 10 11 13 15 17 19 20 22 23 23 22 25 29 29 29 29 30 33 34 32 33 30 24 23 23 20 17 19 20 17 12 11 13 13 10 8 8 8 8 8 9 10 11 11 12 12 11 11 12 14 15 15 17 18 19 20 22 23 23 24 24 25 27 28 26 23 21 20
7 6 5 5 5 5 5 4 4 3 4 5 6 7 8 9 10 11 12 13 14 16 18 18 20 22 22 21 23 26 27 27 28 29 31 32 33 34 32 27 24 21 20 20 22 22 17 11 11 13 12 9 8 8 8 8 7 8 9 10 11 11 11 10 11 11 12 13 15 17 19 21 23 24 25 25 25 25 26 26 24 21 19 20 20
7 7 6 6 5 5 5 5 5 5 5 6 7 7 8 9 10 11 13 14 15 16 17 18 19 21 22 22 23 23 24 26 27 27 25 24 26 29 29 27 24 21 19 20 22 20 16 13 14 14 11 9 8 7 8 9 8 7 8 8 8 9 9 10 11 12 14 16 18 20 22 23 24 24 25 24 24 24 23 22 22 21 19 18 18
9 9 9 9 9 9 8 8 8 8 7 7 8 8 9 10 11 12 13 14 15 16 17 18 19 20 21 23 24 23 23 26 27 26 25 23 22 22 23 24 24 21 19 19 19 16 15 17 16 13 10 9 8 8 8 9 9 8 7 6 5 7 10 10 10 13 15 17 18 20 21 22 22 23 23 22 20 20 20 21 21 19 16 16 17
13 14 14 14 13 12 11 11 12 14 15 15 14 13 13 12 12 13 14 14 15 16 17 17 19 20 21 23 25 25 24 26 27 25 23 22 22 23 24 26 27 24 21 19 18 17 18 18 15 12 10 9 8 8 8 8 9 9 8 8 8 10 13 14 13 13 15 16 17 18 18 19 19 18 18 18 19 19 18 20 19 15 15 18 19
16 18 18 18 17 16 15 15 17 20 22 22 22 21 21 18 16 15 16 16 17 17 17 17 18 20 20 20 23 25 25 26 27 25 23 21 23 25 27 29 30 26 20 17 16 18 19 17 13 11 10 9 8 7 7 8 9 9 9 11 13 14 16 16 15 15 15 14 14 13 12 12 12 12 13 15 17 17 17 19 17 14 16 20 21
18 19 19 19 19 21 21 22 23 24 25 25 25 26 25 24 22 19 18 18 19 18 19 19 18 19 18 19 21 23 22 23 25 25 24 23 25 29 31 28 23 19 18 17 16 17 17 15 12 11 10 9 8 7 7 8 9 9 10 11 14 15 15 14 12 11 10 9 9 9 10 10 11 12 12 12 12 12 14 17 18 17 17 18 20
19 19 20 21 23 24 25 26 26 26 27 27 27 27 26 25 23 21 20 20 20 21 22 21 20 19 18 18 20 20 20 21 23 24 26 27 28 30 29 23 18 19 19 18 17 17 15 12 11 11 9 8 7 6 7 7 8 8 10 11 11 12 12 12 11 9 8 8 9 10 10 10 10 10 10 10 11 14 17 19 20 19 18 17 18
15 17 19 21 22 23 24 23 23 22 23 23 24 25 26 25 24 22 21 21 21 22 23 22 22 22 20 20 21 20 20 23 23 22 26 30 30 26 20 18 21 21 17 16 18 17 14 10 9 10 8 7 7 6 6 7 7 8 9 9 9 9 9 8 7 7 7 8 9 9 8 9 9 10 12 13 15 16 17 17 17 17 17 18 18
14 15 17 18 19 21 22 22 22 21 20 21 22 23 24 25 25 24 22 22 23 24 24 23 23 23 22 21 21 20 22 24 23 22 25 28 29 26 20 19 23 22 18 19 20 17 11 9 9 9 7 7 7 7 6 7 7 7 7 7 8 7 6 5 5 6 7 7 7 8 8 9 10 11 13 15 16 16 17 17 16 16 16 17 16
15 16 16 17 18 19 19 20 21 20 20 21 22 23 24 24 24 24 24 24 24 25 25 25 25 24 23 22 21 22 25 26 24 24 26 28 30 30 25 23 24 23 22 22 19 14 10 10 10 8 8 8 7 6 6 7 6 7 7 7 6 4 4 5 6 6 6 6 7 8 8 9 10 11 13 14 14 15 16 16 16 15 15 15 15
17 18 18 18 18 18 19 19 20 20 21 21 22 23 24 24 25 26 26 26 26 27 27 27 25 25 26 26 24 24 25 26 26 27 30 32 33 32 29 27 26 24 23 21 17 13 12 10 9 8 8 8 7 6 6 6 6 6 6 5 5 6 7 8 8 7 5 5 6 7 9 11 12 11 12 12 13 14 14 14 14 14 14 14 16
19 19 20 20 20 20 20 20 20 22 22 22 22 23 23 23 24 26 27 27 27 28 28 29 27 26 27 26 24 24 25 26 28 32 35 35 35 33 32 31 28 26 24 21 16 14 12 10 10 10 9 8 7 6 6 6 5 4 3 4 6 7 7 7 7 5 3 4 8 10 11 12 11 10 11 12 13 13 13 13 13 14 14 15 15
20 20 20 19 19 19 19 19 20 21 22 22 22 23 24 24 25 24 25 26 27 28 30 30 28 26 26 25 25 27 28 28 31 35 37 36 36 36 34 32 30 27 24 21 17 15 14 13 11 11 9 8 6 5 5 5 4 4 5 5 4 4 4 3 4 3 5 9 12 11 10 10 10 10 12 12 13 13 13 12 13 13 13 14 14
18 18 17 17 17 17 17 18 18 19 21 21 22 23 24 25 27 27 26 25 26 27 29 29 25 23 24 25 26 28 29 29 31 35 38 37 36 34 32 31 29 27 23 19 17 15 15 14 12 11 9 7 6 7 7 6 5 5 6 4 4 5 5 3 2 5 9 12 11 9 9 9 10 10 11 12 12 13 12 12 12 13 13 14 14
16 15 15 15 16 16 16 17 17 18 19 20 21 23 23 24 26 28 29 29 27 25 26 27 25 23 21 19 21 25 29 31 31 34 37 37 34 31 30 29 26 22 19 18 17 16 15 14 12 11 9 7 7 9 8 6 6 6 5 3 3 4 4 2 4 8 11 10 8 8 9 10 10 11 12 12 12 12 12 12 12 12 12 14 15
14 15 15 16 18 18 18 19 18 18 18 19 20 21 22 23 23 24 26 29 31 30 29 29 30 29 25 21 19 17 19 24 28 30 32 31 29 28 29 27 22 19 18 17 15 14 14 13 11 10 9 9 9 9 8 7 7 7 5 3 3 2 2 3 7 10 10 8 7 8 9 10 11 12 12 12 12 13 13 12 12 12 13 14 14
16 18 20 21 21 20 19 19 18 17 17 18 19 20 21 22 22 22 23 25 27 29 29 29 31 32 31 28 24 20 15 17 23 27 28 27 27 28 26 22 19 18 18 16 13 13 14 13 12 11 10 10 10 10 9 8 7 6 5 4 3 2 3 5 7 8 7 7 8 8 9 10 11 12 12 12 12 13 13 12 12 13 13 14 15
21 22 22 22 21 21 20 20 20 19 18 18 18 18 19 20 21 22 22 22 22 23 24 25 27 29 28 25 24 24 21 17 20 25 27 25 23 24 23 21 19 18 16 14 13 14 14 13 12 12 11 11 11 10 8 7 7 6 5 4 2 2 3 4 4 5 7 8 7 7 9 10 11 11 12 12 12 12 12 12 12 13 14 15 16
20 21 21 22 22 22 22 21 20 19 18 18 18 18 18 19 21 22 22 21 20 19 18 20 23 25 25 23 22 26 27 22 19 22 25 23 22 22 22 23 21 19 17 16 15 14 14 13 13 12 12 11 11 9 8 8 7 5 4 3 2 3 3 2 3 6 8 6 5 7 9 10 10 11 11 11 12 12 12 12 13 13 14 15 16
17 19 20 20 20 20 21 21 20 18 16 17 18 19 19 19 19 20 21 22 21 18 15 17 21 23 24 23 22 26 30 26 19 19 21 23 24 24 24 23 22 20 19 18 15 13 13 13 12 12 11 11 10 8 8 7 6 5 4 3 3 3 3 3 3 6 7 5 4 8 9 10 10 11 11 11 12 12 13 13 14 15 15 16 17
16 17 17 16 18 19 20 20 19 16 16 17 18 18 19 19 19 20 20 20 20 17 14 16 19 20 23 25 25 26 29 29 26 24 22 22 24 26 24 21 19 20 20 17 14 14 14 13 12 12 11 10 9 8 7 7 5 5 6 5 4 5 5 4 4 7 8 5 5 8 9 9 11 11 11 12 12 12 13 14 14 15 16 16 17
15 16 16 17 20 20 18 17 17 15 16 17 15 13 16 18 19 20 19 18 18 17 15 15 16 17 19 23 25 27 29 30 29 27 25 25 27 28 25 22 21 22 20 17 14 15 14 13 12 12 10 9 8 6 6 6 5 5 6 5 5 5 4 4 6 8 8 7 6 8 9 10 11 12 12 12 12 12 13 14 14 15 16 16 16
14 15 16 18 19 18 14 12 13 13 14 14 12 11 14 16 17 16 15 15 17 17 13 11 11 13 16 17 20 25 29 29 28 28 28 29 28 27 26 26 25 22 19 17 16 16 14 13 13 12 10 9 8 6 5 6 5 6 7 5 4 3 2 2 3 5 6 6 6 7 9 11 12 12 12 11 11 12 14 15 16 16 17 17 17
13 14 15 16 16 15 12 9 8 9 10 11 10 11 12 14 15 14 11 11 12 10 6 7 9 11 14 15 16 21 26 29 29 29 29 30 28 26 26 25 22 19 19 17 16 15 14 13 13 12 10 10 9 7 7 6 5 6 6 4 3 3 2 1 2 3 6 7 7 8 11 14 14 12 10 10 10 12 14 16 17 17 17 17 18
13 14 14 14 13 11 9 9 8 8 8 8 9 9 9 11 13 12 8 7 7 5 3 6 8 9 11 11 11 15 21 26 29 30 31 29 26 23 22 20 18 19 19 18 15 14 14 13 12 11 11 11 10 8 8 7 6 5 4 3 3 3 1 1 3 5 7 8 10 11 14 17 15 11 9 10 11 12 13 15 15 16 16 16 16
12 12 14 13 10 9 8 8 8 7 6 6 6 6 6 9 11 8 4 2 3 2 3 5 6 6 7 7 7 10 16 21 24 27 28 28 25 21 19 19 19 19 18 16 15 14 13 12 11 11 10 10 9 8 7 6 5 3 3 3 5 4 3 1 4 6 7 9 10 12 15 17 15 11 9 10 11 11 12 14 15 16 16 16 16
12 11 13 13 11 9 8 8 8 8 6 4 5 5 4 5 7 4 2 1 1 0 3 5 5 4 6 7 8 8 11 16 21 25 29 29 26 23 22 23 21 18 16 15 14 13 11 11 11 11 11 11 11 9 7 6 5 3 3 3 5 5 4 4 5 6 6 8 10 12 15 17 16 11 9 10 10 11 13 15 16 16 16 17 17
13 10 10 11 11 10 9 9 9 6 3 2 3 4 3 2 3 3 2 1 2 2 3 5 6 6 6 6 8 9 12 19 27 32 30 27 24 23 23 23 20 17 16 14 12 11 11 12 12 11 13 15 15 13 10 8 7 6 5 4 4 5 4 4 5 5 6 8 10 12 14 17 17 12 9 9 11 12 14 16 16 17 18 17 17
14 10 9 10 11 9 8 10 10 8 5 3 1 2 2 1 2 3 3 2 4 4 3 4 5 5 6 8 12 16 20 25 27 25 22 22 22 21 20 20 19 16 15 13 12 13 13 12 10 9 11 13 14 13 11 9 8 7 5 4 4 3 3 4 4 5 6 7 9 11 13 16 17 14 11 10 12 13 15 16 17 18 18 18 17
14 11 8 8 10 9 8 9 9 8 7 6 5 3 2 2 3 4 4 4 5 4 3 3 5 8 9 12 17 22 25 26 24 21 19 21 21 19 18 18 18 16 15 14 15 15 14 13 11 9 9 11 12 10 8 7 6 4 3 2 2 2 3 3 4 5 5 7 9 11 12 14 16 15 13 11 12 14 16 16 16 17 17 17 16
11 11 8 7 7 7 7 9 10 9 8 9 8 6 4 4 5 5 5 6 7 6 6 7 9 10 12 16 20 23 25 26 25 22 20 20 19 18 18 18 17 17 16 16 16 14 12 11 11 10 10 12 13 10 8 6 4 3 2 1 1 2 3 3 3 4 5 6 8 10 11 13 15 15 13 12 13 15 15 16 15 16 16 17 17
9 10 8 6 5 5 5 7 9 9 9 9 9 8 7 8 8 7 7 7 8 9 11 12 13 14 15 18 22 24 25 26 25 22 19 18 18 17 17 16 15 13 13 15 16 15 12 11 12 12 11 11 11 9 7 6 5 3 2 1 3 4 4 3 3 4 5 6 8 9 10 12 15 15 14 14 14 14 15 15 15 15 16 17 17
9 9 9 8 6 5 5 5 6 8 9 9 10 9 8 8 7 7 7 7 8 10 12 13 13 14 15 18 23 24 24 23 22 20 18 17 17 16 15 14 13 12 13 13 15 15 13 10 9 10 11 11 9 7 6 5 4 3 2 3 4 5 5 5 5 5 6 6 8 9 10 12 14 15 13 12 13 14 14 15 15 16 16 17 17
9 9 9 9 9 9 8 7 6 6 7 8 9 10 11 10 10 9 9 9 9 10 10 12 13 13 13 16 21 23 22 20 20 18 17 17 16 15 14 13 12 12 12 11 10 9 9 8 7 8 9 9 7 6 5 5 5 3 3 3 4 6 7 7 8 8 8 9 10 11 11 12 15 15 12 10 12 13 13 15 16 16 16 16 16
9 8 8 9 10 12 13 13 12 11 9 9 9 9 9 10 10 10 11 12 12 11 10 11 12 13 14 18 21 22 21 21 20 18 16 15 13 13 12 11 10 10 10 8 6 6 6 6 7 8 9 8 7 7 6 5 5 4 3 3 4 6 7 8 9 9 9 10 11 11 12 14 16 16 13 11 11 12 13 15 17 16 15 14 15
Wind_Direction
198 203 206 210 217 223 228 228 226 221 218 223 221 206 194 186 184 186 183 185 194 191 174 167 175 174 169 166 164 166 165 159 153 147 142 140 141 140 134 130 133 133 131 129 125 120 116 115 122 118 105 105 107 97 107 111 99 98 96 89 95 88 84 109 123 124 34 345 61 261 342 19 64 298 330 344 357 2 344 335 351 4 0 343 335
195 200 204 212 221 225 227 227 224 222 225 233 225 209 212 214 192 181 182 183 185 183 174 171 175 176 174 170 166 164 163 159 150 145 148 149 145 137 131 134 141 139 135 133 134 133 126 125 133 135 132 130 123 115 129 132 123 126 122 99 111 127 104 137 172 181 247 339 329 255 327 21 331 278 315 339 359 2 327 315 338 346 331 331 330
196 199 201 209 216 216 217 218 221 226 230 228 214 204 215 219 191 180 185 183 176 174 177 178 176 176 177 174 169 162 160 157 151 152 156 154 149 142 140 148 151 145 139 139 146 147 137 138 150 160 159 145 134 137 155 169 197 150 148 160 137 129 111 207 225 210 214 258 303 256 265 343 335 295 298 314 339 354 345 305 311 310 308 322 327
186 187 189 194 195 194 198 205 212 220 218 208 202 203 218 214 190 187 190 186 181 179 183 184 181 181 180 177 173 170 169 164 157 157 157 155 155 152 149 152 152 146 145 147 153 155 149 149 156 162 160 150 146 153 165 179 185 160 186 205 195 186 185 224 242 296 280 261 288 266 261 317 326 311 304 306 320 334 338 329 324 315 307 317 327
168 170 176 177 175 175 180 188 199 207 202 198 201 209 223 222 202 197 197 193 190 188 187 188 189 189 186 183 181 178 177 172 165 163 161 158 159 158 155 156 154 153 159 162 163 165 164 165 170 175 172 167 165 166 177 190 196 212 221 227 237 233 237 268 268 274 277 272 276 277 287 308 304 300 311 311 313 318 320 320 316 312 314 319 322
157 164 171 170 167 167 172 180 190 198 195 192 202 213 221 222 210 201 202 201 199 198 194 192 195 197 194 192 190 188 185 181 177 175 171 166 164 163 163 164 163 165 171 172 173 178 178 180 188 196 200 202 203 202 208 213 216 221 225 235 250 248 240 251 266 270 274 282 280 274 284 292 286 291 304 307 310 314 317 313 300 304 314 312 308
155 161 164 167 167 166 173 180 182 190 193 193 207 217 217 214 208 206 208 205 206 209 204 198 199 200 201 200 197 195 192 188 186 185 182 179 175 172 170 169 167 171 174 178 186 194 197 202 211 220 227 233 236 233 234 239 241 242 238 238 247 255 250 251 266 273 270 276 282 277 281 284 279 285 300 304 301 304 314 318 310 311 316 313 311
152 156 160 165 170 172 175 180 182 191 200 205 215 220 214 210 208 211 215 213 214 216 212 209 206 202 203 204 200 199 197 194 193 190 187 186 182 179 175 170 171 181 184 187 196 202 207 212 216 220 229 238 241 239 239 241 245 250 250 247 249 252 250 248 259 268 268 272 277 276 282 288 283 283 296 306 304 303 309 314 313 312 313 314 315
143 150 154 159 173 180 181 189 197 201 203 208 216 216 210 208 207 211 216 219 220 219 215 216 213 208 207 205 202 201 198 197 198 194 190 189 187 184 182 177 177 180 181 190 207 217 222 226 227 230 233 235 239 243 246 248 250 251 250 249 249 247 246 249 254 261 265 269 274 275 275 278 278 285 296 300 301 301 301 304 307 308 309 312 313
136 139 139 148 165 177 187 199 207 210 210 209 212 213 212 212 213 216 219 222 226 225 221 220 218 216 212 207 205 203 198 199 201 197 193 191 188 191 197 198 195 193 191 193 204 219 231 244 251 252 247 243 247 252 253 255 255 254 252 252 250 244 244 253 261 261 260 265 272 278 280 279 277 284 293 295 295 295 294 297 301 303 307 310 309
117 118 119 133 147 153 176 192 195 207 215 215 215 217 218 222 225 226 226 229 230 229 226 221 220 219 216 212 209 202 200 205 207 204 202 197 193 198 210 214 215 217 214 209 227 259 268 268 261 252 245 241 248 254 253 253 253 253 253 255 255 250 249 258 263 253 254 266 270 272 280 284 281 280 286 292 291 283 282 291 298 300 303 305 303
100 104 108 113 127 141 155 172 183 196 205 210 216 219 221 229 234 234 233 233 233 234 230 223 221 221 217 215 212 208 212 219 218 215 213 211 209 213 221 223 224 231 237 241 260 274 278 271 253 239 233 239 252 261 258 253 251 252 252 252 254 256 258 262 258 245 244 254 262 269 277 277 276 277 272 272 277 280 286 294 298 297 298 300 300
97 97 100 100 103 114 116 136 187 203 204 210 217 219 224 233 239 241 240 238 237 236 231 223 222 222 218 217 214 215 223 231 230 226 223 220 219 221 228 234 236 243 255 264 267 267 262 256 249 241 242 249 255 258 255 253 254 255 255 254 255 258 262 263 259 250 241 236 240 260 267 259 261 270 269 271 281 289 293 296 295 293 295 297 297
86 82 79 78 79 77 68 34 277 265 248 239 231 227 232 237 240 242 242 241 237 233 227 222 220 220 219 217 212 213 224 233 233 232 230 228 229 232 235 241 248 253 262 266 261 250 246 248 245 237 243 248 240 232 240 254 260 258 259 261 260 260 261 263 262 256 246 239 240 248 254 258 265 275 278 284 291 293 293 294 294 295 298 300 302
70 70 67 62 63 62 49 23 321 288 271 262 252 243 242 243 244 242 237 238 239 237 233 230 228 228 225 224 222 223 230 234 231 230 232 231 234 239 241 245 254 257 259 257 246 236 238 241 230 218 228 235 223 222 237 250 256 258 260 262 263 264 265 264 262 258 251 246 247 252 259 268 275 280 285 290 293 293 294 296 298 301 304 306 306
54 53 52 47 44 42 35 26 352 311 281 271 263 255 252 250 248 242 236 236 239 240 239 236 233 233 232 232 234 234 235 237 234 232 235 236 239 241 239 240 248 251 249 242 231 225 227 225 216 220 226 223 216 222 233 243 251 257 257 258 261 263 264 261 253 249 250 251 255 262 268 275 280 283 288 291 293 295 296 296 299 304 303 299 297
27 27 27 24 21 18 10 358 343 321 293 283 273 263 262 261 257 252 246 241 240 243 246 242 236 236 236 235 235 235 235 238 239 238 238 238 239 238 236 236 241 242 239 233 224 221 220 210 206 218 222 217 218 221 225 231 234 236 244 255 260 258 257 255 251 251 255 259 265 270 275 280 283 285 289 291 292 293 293 294 297 298 295 293 293
353 349 341 335 336 338 334 331 324 310 298 292 282 272 270 269 265 263 257 251 248 247 250 250 244 242 243 240 239 240 240 239 240 241 242 239 233 230 230 230 228 224 221 221 222 222 218 210 213 221 219 215 216 214 215 214 201 204 224 239 250 257 257 253 253 257 260 264 268 271 274 278 281 286 289 290 290 290 290 293 297 296 295 296 296
311 312 310 307 305 306 308 308 303 296 290 287 284 280 277 273 268 265 261 260 259 255 252 251 247 244 245 244 244 242 240 240 241 241 243 241 227 217 216 217 214 205 196 201 211 213 206 205 214 220 215 211 209 203 203 197 183 190 210 214 225 251 256 253 257 262 264 269 273 275 279 283 288 293 291 289 293 298 297 299 304 304 300 298 299
295 291 289 287 286 290 295 293 288 283 280 280 281 281 278 276 273 269 265 263 261 257 254 252 249 246 245 246 248 244 239 241 244 242 240 234 217 205 205 203 196 187 184 194 201 197 197 204 210 210 207 207 203 197 197 192 186 192 204 210 216 230 244 254 267 272 273 279 284 288 294 298 301 304 302 302 313 316 308 306 310 308 298 295 298
294 293 292 290 286 282 279 275 273 273 273 275 277 277 276 275 273 271 268 265 262 259 255 250 248 247 245 243 246 247 244 243 244 241 236 225 210 202 199 198 196 192 193 199 198 193 199 205 204 202 202 201 200 201 201 201 206 212 217 218 220 229 244 258 273 281 285 291 296 297 301 301 300 300 299 302 310 312 309 309 309 300 290 292 294
292 294 295 292 287 283 280 278 276 274 272 272 272 272 272 271 270 268 266 264 261 257 254 250 247 247 244 239 242 247 248 245 241 236 231 225 215 204 197 196 199 195 189 184 181 190 202 204 198 199 200 200 204 208 207 211 220 228 231 231 233 241 252 262 273 284 290 294 292 288 290 291 289 288 290 294 297 294 287 282 278 277 281 284 286
285 283 281 280 280 281 282 282 281 279 276 274 272 271 269 268 267 265 262 261 258 255 254 251 247 244 241 237 240 241 238 239 239 231 226 224 216 203 195 191 183 178 181 179 176 188 200 198 194 199 200 203 209 210 215 222 226 230 236 242 247 254 260 267 274 279 280 279 281 284 288 288 287 291 294 293 286 279 274 272 275 283 288 287 286
296 290 287 283 280 278 277 277 278 278 277 275 273 270 268 266 265 263 260 258 255 254 252 248 246 245 239 236 239 235 230 238 240 226 220 223 216 201 192 185 177 176 179 179 182 195 204 197 194 202 204 209 216 218 223 229 233 240 247 252 257 263 269 276 280 279 279 283 289 290 288 288 292 291 286 285 287 290 293 295 296 296 293 289 289
314 309 305 300 294 289 283 277 275 274 273 272 269 267 265 264 262 259 257 255 251 250 248 246 245 243 235 233 234 225 223 234 234 218 216 220 210 194 186 184 182 178 175 181 193 205 208 197 200 207 209 213 219 223 228 234 240 247 252 258 268 275 277 273 272 276 282 288 289 287 288 293 294 288 292 307 316 312 307 305 300 295 294 292 292
311 309 308 306 304 302 296 290 284 278 274 271 268 265 262 259 257 255 253 252 250 248 247 246 243 238 234 232 227 217 221 233 229 214 208 203 192 185 185 190 192 189 186 191 201 207 202 202 209 211 212 219 224 226 230 237 245 250 258 270 277 271 262 262 265 270 278 285 288 291 294 295 291 289 299 312 311 300 298 301 298 297 298 297 295
306 304 302 300 299 298 296 295 292 286 278 271 268 266 262 258 256 253 251 250 249 248 247 247 246 241 236 232 221 209 213 223 220 205 194 189 186 187 191 196 200 201 199 200 206 209 206 209 212 211 215 222 222 225 232 239 249 261 273 278 268 255 259 268 275 278 277 285 294 293 291 292 294 297 300 296 289 291 300 303 300 298 299 299 298
303 301 298 296 295 293 291 290 290 290 285 278 271 267 263 259 256 254 252 251 249 249 248 247 246 245 241 234 225 217 215 216 211 201 193 189 190 192 195 200 203 203 203 204 207 207 207 208 209 212 216 218 219 231 241 243 251 267 262 245 261 280 291 301 315 322 301 285 294 296 296 301 304 306 306 303 300 304 306 302 299 299 298 297 295
301 299 296 293 291 289 289 288 286 286 286 283 278 271 264 259 257 257 257 254 248 247 249 246 244 247 247 242 237 233 227 218 210 203 198 195 195 195 197 200 201 200 201 203 202 200 201 204 207 208 209 211 214 216 215 217 232 257 254 234 234 263 287 313 338 325 286 290 302 308 308 310 308 305 307 307 304 304 304 302 301 299 297 297 296
301 298 297 294 290 288 288 287 285 283 282 283 283 279 271 263 257 254 255 253 248 246 247 246 240 236 237 239 237 231 221 212 209 206 201 198 197 198 198 199 200 199 198 197 197 197 197 198 200 200 202 203 193 181 188 200 215 241 261 259 211 223 256 285 288 282 294 308 318 318 310 308 309 308 307 305 303 304 304 302 301 300 299 299 298
301 298 296 293 290 288 286 285 284 283 282 282 283 283 280 272 264 257 253 251 250 246 244 243 239 232 226 224 222 216 208 204 207 209 206 200 197 197 200 200 200 199 195 191 192 194 194 193 191 189 186 185 181 183 192 201 202 208 230 248 220 241 283 301 276 293 311 321 320 311 308 310 311 310 308 305 304 305 304 303 304 302 299 300 299
300 299 299 297 295 292 289 287 284 279 278 279 280 283 282 277 272 268 259 252 250 250 248 246 247 249 246 237 227 215 198 192 197 204 204 199 196 198 201 201 196 191 188 188 187 185 184 184 182 179 178 181 186 193 197 199 200 201 205 209 213 233 273 275 287 308 322 321 311 311 313 313 310 308 307 307 305 306 307 307 306 304 301 301 300
304 304 303 303 301 294 288 286 282 278 277 276 276 280 281 277 272 271 266 256 252 253 253 250 249 253 254 251 246 242 221 191 188 192 192 193 198 200 197 192 187 184 183 184 182 181 180 178 176 178 181 182 188 196 199 198 201 201 197 201 213 226 256 282 305 320 318 311 315 318 312 310 310 308 309 309 308 309 310 309 308 307 305 303 302
311 310 307 307 304 296 290 284 278 274 273 272 271 273 277 278 273 269 266 260 254 254 255 250 244 244 245 244 239 231 216 195 187 187 186 189 196 194 185 180 181 184 185 185 183 184 183 177 175 179 180 180 188 198 197 193 196 197 195 196 201 226 266 293 308 302 295 301 313 316 311 312 313 310 311 313 312 313 315 314 312 310 307 304 305
312 314 314 313 309 304 300 293 283 275 269 268 268 268 271 276 274 268 264 260 255 253 252 247 240 234 230 227 222 213 204 192 181 182 184 184 185 185 185 184 184 185 186 184 181 182 181 176 176 179 177 180 192 200 196 192 192 189 188 194 208 234 261 285 288 293 305 313 314 313 315 316 316 314 315 316 317 318 319 316 312 310 307 306 305
311 311 310 307 303 300 297 294 289 279 268 268 270 263 261 268 274 271 267 260 252 248 243 238 236 230 221 217 213 209 207 204 196 190 189 187 186 189 193 191 187 185 186 184 181 182 182 178 177 177 176 181 192 196 193 191 186 183 192 201 213 236 248 253 280 314 342 358 328 316 320 321 321 322 321 320 322 320 317 314 311 310 307 305 304
316 313 308 304 302 297 290 286 285 278 270 277 280 266 256 263 273 276 273 263 253 249 235 221 224 226 222 219 215 210 211 215 217 219 220 215 208 204 201 195 192 192 190 185 182 182 180 176 175 174 175 177 178 178 183 183 178 195 214 215 213 228 242 262 310 345 10 18 327 317 324 326 327 329 327 324 324 321 317 315 313 310 308 307 307
323 321 320 319 317 311 296 281 274 271 274 284 286 273 262 265 271 275 274 263 252 247 233 218 220 225 222 221 220 216 212 210 211 216 220 218 212 205 199 196 200 201 193 185 185 183 178 174 172 170 170 168 161 165 177 173 169 200 220 217 218 239 266 313 339 349 359 358 333 325 329 332 333 334 331 326 323 318 316 316 318 317 316 316 314
331 329 328 328 329 329 318 292 272 269 279 287 285 278 275 271 268 272 273 259 246 240 223 201 201 214 220 224 224 221 217 211 206 205 206 205 206 205 200 195 197 196 188 184 186 182 174 171 170 166 165 162 162 178 190 175 178 209 217 208 215 243 277 330 338 332 333 337 334 328 329 332 332 330 328 324 319 319 323 328 332 330 324 320 317
336 333 332 334 338 340 334 316 289 277 285 294 288 280 280 275 269 270 266 246 237 236 211 166 170 201 219 224 225 225 224 220 217 214 211 207 205 203 197 189 186 184 181 182 185 179 169 168 169 165 162 160 164 181 192 182 190 214 216 204 211 226 249 312 309 301 315 331 340 336 334 335 332 327 325 324 323 327 331 332 333 330 324 321 319
339 339 340 341 343 344 339 334 323 300 292 297 291 280 279 278 275 278 272 237 226 233 207 178 188 208 215 215 223 231 227 221 220 222 217 205 192 185 183 180 177 179 178 177 175 169 164 166 168 163 159 158 159 168 180 182 190 206 206 202 213 212 199 347 304 296 316 337 345 342 341 343 341 335 332 331 329 331 330 328 329 332 329 324 321
344 347 349 347 343 335 326 327 331 320 302 295 286 276 278 275 270 277 301 271 238 231 192 184 191 205 201 191 202 221 224 222 220 213 199 180 164 163 175 177 171 168 168 166 165 166 168 171 168 157 153 156 157 163 176 178 175 185 196 206 218 216 193 217 277 295 322 343 346 344 348 352 351 344 337 334 331 331 333 334 336 334 328 323 323
352 356 354 351 350 347 336 323 315 305 297 295 283 266 264 267 260 258 290 305 270 197 200 201 205 219 216 200 194 207 221 218 201 182 166 156 152 160 172 174 168 163 163 164 167 172 169 159 147 142 149 155 152 151 161 164 161 171 194 209 222 229 226 236 270 299 326 342 345 348 353 356 355 348 336 335 336 338 341 341 337 332 327 325 326
353 356 351 350 355 2 7 360 346 329 311 302 274 234 210 227 241 225 205 166 123 129 196 228 233 231 220 195 180 179 180 177 170 160 152 151 154 157 164 169 170 168 170 172 173 167 153 145 148 160 173 176 174 173 176 179 182 192 205 214 225 237 250 263 281 302 322 336 345 352 355 356 355 348 337 339 345 346 342 339 335 333 332 329 327
352 358 360 2 4 11 16 13 14 23 35 23 2 195 200 229 197 171 161 134 119 133 192 231 218 190 170 161 164 165 160 156 155 151 147 149 153 154 162 169 168 164 166 171 165 152 145 146 157 168 174 180 187 195 200 204 206 208 215 229 240 254 274 282 289 303 319 334 346 352 354 354 354 353 356 358 353 344 338 337 336 335 332 330 332
354 2 14 15 15 22 28 23 24 35 35 31 50 110 184 198 146 135 133 124 119 128 167 183 157 152 154 157 160 160 154 149 147 144 142 147 153 158 164 167 164 163 166 166 159 155 155 154 151 152 165 179 187 191 195 201 208 215 228 246 264 294 308 302 298 308 322 336 345 350 354 355 355 359 7 5 350 340 340 340 337 332 332 336 343
2 7 18 23 21 30 41 38 36 38 35 38 54 76 95 99 97 98 108 116 111 108 120 132 135 142 155 161 161 158 154 151 149 147 148 153 161 165 165 166 169 175 176 167 155 150 154 158 162 175 193 194 188 182 178 180 189 206 223 251 328 346 341 327 318 324 335 342 345 350 355 357 357 4 15 12 353 342 342 341 337 335 340 347 351
13 9 16 33 45 61 74 63 51 47 48 51 57 63 71 79 84 89 100 108 109 110 118 125 128 131 141 152 158 159 158 157 158 159 160 163 166 167 167 169 172 171 168 162 156 154 159 173 184 191 191 183 180 183 183 181 186 195 181 68 27 20 17 11 2 358 355 352 352 357 1 360 1 9 19 15 356 343 341 342 341 341 346 351 350
25 21 22 34 48 64 80 77 60 53 59 66 69 71 77 84 91 98 102 108 117 121 123 126 130 131 136 149 158 162 163 164 165 165 164 162 160 160 162 165 163 158 160 169 176 179 183 188 185 177 171 171 176 183 181 179 182 175 124 69 45 39 41 43 43 35 26 17 15 14 11 6 7 11 12 2 348 342 344 347 344 343 346 350 348
30 34 36 41 48 52 57 60 56 56 63 70 73 78 84 86 87 93 101 106 112 117 121 126 131 132 137 150 159 163 161 158 155 154 153 153 154 156 157 159 164 170 174 180 186 186 185 182 172 164 165 170 178 183 183 180 172 150 110 73 57 54 54 57 57 50 43 40 35 28 20 16 15 12 7 354 345 346 350 351 347 345 348 349 346
34 37 41 46 51 56 60 63 65 68 73 77 77 81 87 88 88 96 108 111 108 105 108 117 125 131 138 147 152 152 149 146 145 145 145 147 151 158 160 163 166 166 160 155 152 153 157 168 177 177 174 177 187 192 187 174 158 142 118 85 72 66 62 61 58 51 45 43 37 29 26 24 19 12 6 358 351 351 357 356 350 347 348 347 345